Powrót do katalogu

STARLINK-35244

AktywnyŁącznośćVLEO
NORAD 65829·PAYLOAD·🇺🇸 United States

Wystrzelony Sep 29, 2025 z Vandenberg Space Force Base

Loading…

Następne Przeloty (najbliższe 24 godziny)

TLE

ŚwieżeSource: CelesTrak SupGP

Epoka: Sep 14, 2026, 20:51 UTC

1 65829C 25221G   26257.86923611  .00015545  00000+0  50009-3 0  2573
2 65829  53.1574 291.2016 0001125  89.8214 356.3064 15.31681106    19

Śledź STARLINK-35244 w czasie rzeczywistym z AllMySat

Download on the App Store